Simultaneous Nadir Overpasses (SNOs) Predictions

Prediction of SNOs between AQUA and METOP-B Satellite Orbit:

Table of predicted SNOs for the next 14.0 days since TLE Epoch: 12/24/2022
Index Date (AQUA) Time (AQUA) Lat,Lon (AQUA) SZA (AQUA ) Date (METOP-B) Time (METOP-B) Lat,Lon (METOP-B) SZA (METOP-B ) Distance(km) Time Diff (sec)
1 12/24/2022 05:25:45 -74.18, -86.33 82.44 12/24/2022 05:25:28 -74.15, -86.34 82.47 3.37 17
2 12/24/2022 06:15:12 74.21, 81.24 97.59 12/24/2022 06:16:07 74.21, 81.12 97.58 3.50 55
3 12/26/2022 23:19:47 -73.65, 6.35 83.08 12/26/2022 23:18:39 -73.63, 4.15 83.03 68.82 68
4 12/27/2022 00:09:24 74.20, 172.74 97.50 12/27/2022 00:09:08 74.18, 172.80 97.48 3.03 16
5 12/27/2022 00:58:50 -74.25, -19.73 82.45 12/27/2022 00:59:48 -74.25, -19.68 82.45 1.65 58
6 12/29/2022 18:03:28 73.76, -94.78 96.91 12/29/2022 18:02:19 73.69, -96.63 96.90 57.90 69
7 12/29/2022 18:53:01 -74.16, 71.93 82.67 12/29/2022 18:52:51 -74.17, 71.86 82.66 2.46 10
8 12/29/2022 19:42:29 74.26,-120.64 97.43 12/29/2022 19:43:29 74.27,-120.57 97.43 2.55 60
9 01/01/2023 12:47:09 -73.97, 163.87 83.07 01/01/2023 12:45:57 -73.93, 163.01 83.07 26.43 72
10 01/01/2023 13:36:39 74.16, -28.95 97.14 01/01/2023 13:36:32 74.17, -29.06 97.15 3.42 7
11 01/01/2023 14:26:06 -74.26, 138.47 82.77 01/01/2023 14:27:12 -74.26, 138.48 82.78 0.32 66
12 01/04/2023 07:30:48 74.11, 62.65 96.83 01/04/2023 07:29:35 74.02, 62.31 96.76 14.28 73
13 01/04/2023 08:20:15 -74.20,-129.92 83.08 01/04/2023 08:20:13 -74.21,-129.90 83.07 0.65 2
14 01/04/2023 09:09:42 74.25, 37.61 96.97 01/04/2023 09:10:52 74.25, 37.54 96.97 2.27 70
15 01/07/2023 02:14:24 -74.13, -38.28 83.46 01/07/2023 02:13:15 -74.15, -38.30 83.43 1.61 69
16 01/07/2023 03:03:51 74.18, 129.25 96.60 01/07/2023 03:03:54 74.19, 129.13 96.60 3.55 3



Historial Predications of SNOs between AQUA and METOP-B
